INTELSAT 35E (IS-35E)

Last updated on Mon Sep 07 2026 00:03:00 GMT+0000 (Coordinated Universal Time)

1 42818U 17041A 26249.37127943 -.00000253 00000+0 00000+0 0 9994 2 42818 0.0171 128.7447 0002106 44.0490 271.8392 1.00271195 33629
UTC large
Height (km)
Speed (km/s)
/
Latitude / Longitude
Inclination (degrees)
Orbital Period (minutes)
Azimuth
Elevation
Range (km)
Doppler Factor

Next 0 passes for location: London (51.5072 / 0.1276)

No passes found over London.
INTELSAT 35E (IS-35E)